HK6RM-21 Weather Reports


Display with metric or nautical units.
time (UTC)temp
F
wind
direction
speed
MPH
gust
MPH
rain 1hr
in
rain 24hr
in
rain mn
in
humidity
%
barometer
mb
20260504140445 76 132 3.0 1.0 0.00 0.00 0.00 96 1013.0
20260504130436 76 132 3.0 1.0 0.00 0.00 0.00 96 1013.0
20260504110420 76 132 3.0 1.0 0.00 0.00 0.00 96 1013.0
20260504100415 76 132 3.0 1.0 0.00 0.00 0.00 96 1013.0
20260504081605 76 132 3.0 1.0 0.00 0.00 0.00 96 1012.0
20260504080404 76 132 3.0 1.0 0.00 0.00 0.00 96 1012.0
20260504070356 78 106 1.0 1.0 0.00 0.00 0.00 96 1013.0
20260504050343 78 106 1.0 1.0 0.00 0.00 0.00 96 1014.0
20260504045142 78 106 2.0 1.0 0.00 0.00 0.00 96 1013.0
20260504043940 79 82 1.0 1.0 0.00 0.00 0.00 95 1013.0
20260504042740 79 82 1.0 1.0 0.00 0.00 0.00 95 1014.0
20260504041539 79 82 1.0 1.0 0.00 0.00 0.00 95 1014.0
20260504040338 79 82 1.0 1.0 0.00 0.00 0.00 95 1014.0
20260504035137 79 82 2.0 2.0 0.00 0.00 0.00 95 1013.0
20260504033935 80 121 1.0 1.0 0.00 0.00 0.00 93 1013.0
20260504032734 80 121 1.0 1.0 0.01 0.00 0.00 93 1014.0
20260504031533 80 121 1.0 1.0 0.01 0.00 0.00 93 1014.0
20260504030331 80 121 1.0 1.0 0.01 0.00 0.00 93 1014.0
20260504025131 80 121 1.0 1.0 0.00 0.00 0.00 93 1013.0
20260504023927 80 121 1.0 1.0 0.01 0.00 0.00 93 1013.0
20260504022727 80 121 1.0 1.0 0.02 0.00 0.00 93 1013.0
20260504021526 80 121 1.0 1.0 0.03 0.00 0.00 93 1013.0
20260504020320 80 121 1.0 1.0 0.04 0.00 0.00 93 1013.0
20260504015120 80 121 1.0 2.0 0.01 0.00 0.00 93 1012.0
20260504013919 81 77 1.0 1.0 0.00 0.00 0.00 90 1012.0
20260504012717 81 77 1.0 1.0 0.00 0.00 0.00 90 1012.0
20260504011517 81 77 1.0 1.0 0.00 0.00 0.00 90 1012.0
20260504010314 81 77 1.0 1.0 0.00 0.00 0.00 90 1012.0
20260504005114 81 77 1.0 2.0 0.00 0.00 0.00 90 1011.0
20260504003913 82 68 1.0 1.0 0.00 0.00 0.00 88 1011.0
20260504002712 82 68 1.0 2.0 0.00 0.00 0.00 88 1011.0
20260504001511 83 68 1.0 2.0 0.00 0.00 0.00 87 1009.0
20260504000310 83 68 1.0 2.0 0.00 0.00 0.00 87 1009.0
20260503235109 83 67 1.0 1.0 0.00 0.00 0.00 87 1009.0
20260503233908 84 16 1.0 1.0 0.00 0.00 0.00 82 1009.0
20260503232708 84 16 1.0 1.0 0.00 0.00 0.00 82 1009.0
20260503231507 84 16 1.0 1.0 0.00 0.00 0.00 82 1009.0
20260503230305 84 16 1.0 1.0 0.00 0.00 0.00 82 1008.0
20260503225104 84 16 2.0 2.0 0.00 0.00 0.00 82 1008.0
20260503223903 86 20 1.0 1.0 0.00 0.00 0.00 85 1008.0
20260503222702 86 20 1.0 1.0 0.00 0.00 0.00 85 1008.0
20260503221501 86 20 1.0 1.0 0.00 0.00 0.00 85 1008.0
20260503220300 86 20 1.0 1.0 0.00 0.00 0.00 85 1007.0
20260503215059 86 20 1.0 1.0 0.00 0.00 0.00 85 1007.0
20260503213859 86 20 1.0 1.0 0.00 0.00 0.00 85 1007.0
20260503212658 86 20 1.0 1.0 0.00 0.00 0.00 85 1008.0
20260503211458 86 20 1.0 1.0 0.00 0.00 0.00 85 1008.0
20260503210254 86 20 1.0 1.0 0.00 0.00 0.00 85 1007.0
20260503205053 86 20 1.0 1.0 0.00 0.00 0.00 85 1007.0
20260503203852 86 20 1.0 1.0 0.00 0.00 0.00 85 1007.0
20260503202651 86 20 1.0 1.0 0.00 0.00 0.00 85 1008.0
20260503201451 86 20 1.0 1.0 0.00 0.00 0.00 85 1008.0
20260503200249 86 20 1.0 1.0 0.00 0.00 0.00 85 1008.0
20260503195048 86 20 1.0 1.0 0.00 0.00 0.00 85 1007.0
20260503193848 86 20 1.0 1.0 0.00 0.00 0.00 85 1007.0
20260503192645 86 20 1.0 1.0 0.00 0.00 0.00 85 1009.0
20260503191443 86 20 1.0 1.0 0.00 0.00 0.00 85 1009.0
20260503190242 86 20 1.0 1.0 0.00 0.00 0.00 85 1009.0
20260503185040 86 20 1.0 1.0 0.00 0.00 0.00 85 1008.0
20260503183833 86 20 1.0 1.0 0.00 0.00 0.00 85 1008.0
20260503182632 86 20 1.0 1.0 0.00 0.00 0.00 85 1010.0
20260503180225 86 20 1.0 1.0 0.00 0.00 0.00 85 1010.0
20260503175025 86 20 1.0 1.0 0.00 0.00 0.00 85 1010.0
20260503173825 86 20 1.0 1.0 0.00 0.00 0.00 85 1010.0
20260503172624 86 20 1.0 1.0 0.00 0.00 0.00 85 1012.0
20260503171423 86 20 1.0 1.0 0.00 0.00 0.00 85 1012.0
20260503170221 86 20 1.0 1.0 0.00 0.00 0.00 85 1012.0
20260503160213 86 20 1.0 1.0 0.00 0.00 0.00 85 1013.0